Volver al catálogo

OPS 4682 DEB

ActivoPO
NORAD 38400·DEBRIS·🇺🇸 United States

Lanzado Apr 3, 1965 desde Vandenberg Space Force Base

Loading…

Próximos Pases (próximas 24 horas)

TLE

ActualizadoSource: Space-Track

Época: Sep 14, 2026, 02:21 UTC

1 38400U 65027DD  26257.09822287  .00000760  00000-0  25478-2 0  9996
2 38400  90.2607  19.2881 0034374 126.0261 234.4054 12.98507032625809

Sigue OPS 4682 DEB en tiempo real con AllMySat

Download on the App Store